Flag for United Kingdom Weather past 2 weeks in Newport, Wales, United Kingdom

Now
45 °F

Passing clouds.


Feels Like: 38 °F
Forecast: N/A
Wind: 13 mph from Northwest

Location: Bristol / Lulsgate

Current Time: Mar 26, 2015 at 7:53:18 PM

Latest Report: Mar 26, 2015 at 7:20 PM


Visibility: N/A

Pressure: 29.89 "Hg

Humidity: 66%

Dew point: 34 °F

Location of NewportLocation

Historic Weather in Newport — Graph

°F

Newport temperature yesterday

Maximum temperature yesterday: 46 °F (at 2:20 PM)
Minimum temperature yesterday: 32 °F (at 1:20 AM)
Average temperature yesterday: 40 °F

Past Weeks' High & Low Weather Summary

 TemperatureHumidityPressure
High55 °F (Mar 12, 12:20 PM)100% (Mar 11, 11:20 PM)30.54 "Hg (Mar 11, 11:20 PM)
Low32 °F (Mar 25, 1:20 AM)47% (Mar 26, 4:20 PM)29.50 "Hg (Mar 26, 3:50 AM)
Average42 °F82%30.19 "Hg
* Reported Mar 11 6:20 PM — Mar 26 6:20 PM, Newport, Weather by CustomWeather, © 2015

Note: Actual official high and low records may vary slightly from our data, if they occured in-between our weather recording intervals... More about our weather records

Advertising

Newport weather history for previous 24 hours

 ConditionsComfort  
Time TempWeatherWind HumidityBarometerVisibility
6:20 PM
Thu, Mar 26
46 °FPassing clouds.16 mph57%29.86 "HgN/A
5:50 PM46 °FPassing clouds.18 mph57%29.86 "HgN/A
5:20 PM48 °FPassing clouds.18 mph54%29.83 "HgN/A
4:50 PM48 °FPassing clouds.21 mph54%29.80 "HgN/A
4:20 PM50 °FPassing clouds.18 mph47%29.80 "HgN/A
3:50 PM50 °FPassing clouds.21 mph50%29.80 "HgN/A
3:20 PM50 °FPassing clouds.23 mph54%29.77 "HgN/A
2:50 PM52 °FPassing clouds.23 mph58%29.77 "HgN/A
2:20 PM52 °FScattered clouds.21 mph58%29.74 "HgN/A
1:50 PM52 °FScattered clouds.22 mph62%29.74 "HgN/A
1:20 PM52 °FScattered clouds.22 mph62%29.71 "HgN/A
12:50 PM52 °FScattered clouds.24 mph62%29.71 "HgN/A
12:20 PM52 °FScattered clouds.21 mph67%29.68 "HgN/A
11:50 AM50 °FScattered clouds.20 mph71%29.65 "HgN/A
11:20 AM50 °FPartly sunny.20 mph76%29.65 "HgN/A
10:50 AM48 °FPartly sunny.21 mph82%29.62 "HgN/A
10:20 AM48 °FPartly sunny.17 mph82%29.62 "HgN/A
9:50 AM48 °FScattered clouds.17 mph82%29.59 "HgN/A
9:20 AM48 °FScattered clouds.15 mph94%29.59 "HgN/A
8:50 AM48 °FSnow. Scattered clouds.10 mph94%29.56 "HgN/A
8:20 AM46 °FFog.14 mph100%29.53 "Hg5 mi
7:50 AM46 °FFog.10 mph93%29.53 "Hg1 mi
7:20 AM45 °FFog.12 mph100%29.50 "Hg0 mi
6:50 AM45 °FFog.12 mph93%29.50 "Hg1 mi
6:20 AM43 °FLight rain. Partly sunny.10 mph93%29.50 "Hg5 mi
5:50 AM43 °FLight rain. Passing clouds.13 mph93%29.50 "Hg5 mi
5:20 AM41 °FLight rain. Passing clouds.16 mph93%29.50 "Hg5 mi
4:50 AM41 °FLight rain. Passing clouds.15 mph93%29.50 "HgN/A
4:20 AM41 °FLight rain. Passing clouds.20 mph93%29.50 "HgN/A
3:50 AM41 °FLight rain. Passing clouds.21 mph93%29.50 "HgN/A
3:20 AM39 °FLight rain. Passing clouds.21 mph93%29.53 "HgN/A
2:50 AM39 °FLight rain. Passing clouds.15 mph93%29.56 "HgN/A
2:20 AM39 °FLight rain. Passing clouds.12 mph87%29.59 "HgN/A
1:50 AM37 °FLight rain. Passing clouds.12 mph93%29.62 "HgN/A
1:20 AM37 °FLight rain. Partly cloudy.15 mph87%29.65 "HgN/A
12:50 AM39 °FLight rain. Partly cloudy.15 mph81%29.68 "HgN/A
12:20 AM41 °FLight rain. Partly cloudy.18 mph76%29.68 "HgN/A
11:50 PM
Wed, Mar 25
41 °FClear.14 mph81%29.71 "Hg10 mi
11:20 PM41 °FClear.12 mph81%29.74 "Hg10 mi
10:50 PM41 °FClear.12 mph81%29.74 "Hg10 mi
10:20 PM41 °FPassing clouds.9 mph81%29.77 "HgN/A
9:50 PM41 °FPassing clouds.6 mph76%29.77 "HgN/A
9:20 PM39 °FPassing clouds.6 mph87%29.80 "HgN/A
8:50 PM39 °FPassing clouds.3 mph87%29.80 "HgN/A
8:20 PM39 °FPassing clouds.6 mph87%29.83 "HgN/A
7:50 PM37 °FPassing clouds.5 mph87%29.83 "HgN/A
7:20 PM39 °FPassing clouds.5 mph81%29.83 "HgN/A
Weather by CustomWeather, © 2015

See weather overviewHow to use our weather pages